Phoenix Deer Valley, AZ

8:22 PM MST on December 11, 2019 (GMT -0700)
Phoenix-Deer Valley Municipal

Weather History for KDVT - October, 2019

Change the Weather History Date:

Monday, October 14, 2019

  Actual Average Record
Temperature  
Mean Temperature 74 °F -  
Max Temperature 86 °F 85 °F 97 °F (2015)
Min Temperature 61 °F 63 °F 55 °F (2013)
Cooling Degree Days 8    
Growing Degree Days 24 (Base 50)    
Moisture  
Dew Point 44 °F    
Average Humidity 33    
Maximum Humidity 41    
Minimum Humidity 26    
Precipitation  
Precipitation 0.00 in - - ()
Sea Level Pressure  
Sea Level Pressure 29.83 in    
Wind  
Wind Speed 3 mph ()    
Max Wind Speed 8 mph    
Max Gust Speed -    
Visibility 10.0 miles    
Events      
Averages and records for this station are not official NWS values.
T = Trace of Precipitation, MM = Missing Value Source: Averaged Metar Reports

Daily Weather History Graph

Daily Weather History Graph

Search for Another Location

Airport or City:

Astronomy

Oct. 14, 2019 Rise Set
Actual Time 6:32 AM MST 5:55 PM MST
Civil Twilight 6:07 AM MST 6:20 PM MST
Nautical Twilight 5:38 AM MST 6:49 PM MST
Astronomical Twilight 5:09 AM MST 7:18 PM MST
Moon 6:48 PM MST (10/14) 7:08 AM MST (10/14)
Length of Visible Light 12h 13m
Length of Day
11h 23m
Full, 99% of the Moon is Illuminated
Oct 14
Full
Oct 21
Last Quarter
Oct 27
New
Nov 4
First Quarter
Nov 12
Full

Hourly Weather History & Observations

Time (MST) Temp. Heat Index Dew Point Humidity Pressure Visibility Wind Dir Wind Speed Gust Speed Precip Events Conditions
12:53 AM 68.0 °F - 33.1 °F 27% 29.81 in 10.0 mi Calm Calm - N/A   Clear
1:53 AM 64.0 °F - 33.1 °F 31% 29.81 in 10.0 mi Variable 3.5 mph - N/A   Clear
2:53 AM 63.0 °F - 32.0 °F 31% 29.81 in 10.0 mi ESE 5.8 mph - N/A   Clear
3:53 AM 64.9 °F - 33.1 °F 31% 29.82 in 10.0 mi Calm Calm - N/A   Clear
4:53 AM 64.0 °F - 34.0 °F 33% 29.83 in 10.0 mi NE 3.5 mph - N/A   Clear
5:53 AM 61.0 °F - 35.1 °F 38% 29.85 in 10.0 mi Calm Calm - N/A   Clear
6:53 AM 63.0 °F - 37.0 °F 38% 29.86 in 10.0 mi NE 3.5 mph - N/A   Clear
8:53 AM 75.0 °F - 37.9 °F 26% 29.89 in 10.0 mi Calm Calm - N/A   Clear
9:53 AM 78.1 °F - 41.0 °F 27% 29.88 in 10.0 mi ESE 6.9 mph - N/A   Clear
10:53 AM 79.0 °F - 51.1 °F 38% 29.87 in 10.0 mi SSE 8.1 mph - N/A   Clear
11:53 AM 81.0 °F 80.5 °F 54.0 °F 39% 29.85 in 10.0 mi Variable 6.9 mph - N/A   Clear
12:53 PM 81.0 °F 80.4 °F 53.1 °F 38% 29.83 in 10.0 mi Calm Calm - N/A   Clear
1:53 PM 84.9 °F 83.2 °F 53.1 °F 33% 29.81 in 10.0 mi SW 6.9 mph - N/A   Partly Cloudy
2:53 PM 86.0 °F - 51.1 °F 30% 29.80 in 10.0 mi Calm Calm - N/A   Partly Cloudy
3:53 PM 84.0 °F - 50.0 °F 31% 29.79 in 10.0 mi West 8.1 mph - N/A   Clear
4:53 PM 84.0 °F - 48.9 °F 29% 29.79 in 10.0 mi Variable 4.6 mph - N/A   Clear
5:53 PM 82.9 °F - 48.9 °F 31% 29.80 in 10.0 mi NW 4.6 mph - N/A   Clear
6:53 PM 80.1 °F - 48.0 °F 32% 29.81 in 10.0 mi NW 4.6 mph - N/A   Clear
7:53 PM 77.0 °F - 46.9 °F 34% 29.83 in 10.0 mi North 4.6 mph - N/A   Clear
8:53 PM 75.9 °F - 46.9 °F 36% 29.84 in 10.0 mi North 6.9 mph - N/A   Clear
9:53 PM 75.0 °F - 46.0 °F 36% 29.85 in 10.0 mi NNE 6.9 mph - N/A   Clear
10:53 PM 73.0 °F - 46.0 °F 38% 29.86 in 10.0 mi NNE 3.5 mph - N/A   Clear
11:53 PM 71.1 °F - 46.0 °F 41% 29.86 in 10.0 mi North 3.5 mph - N/A   Clear